Home > Weather > Scheibbs > Past weeks

Flag for Austria Past Weather in Scheibbs, Lower Austria, Austria — Yesterday and Last 2 Weeks

Now
62 °F

Cool.


Feels Like: 62 °F
Forecast: 51 / 79 °F
Wind: No wind

Location: Amstetten

Current Time: Aug 25, 2016 at 1:26:31 AM

Latest Report: Aug 25, 2016 at 12:00 AM


Visibility: N/A

Pressure: 30.24 "Hg

Humidity: 92%

Dew Point: 59 °F

Location of ScheibbsLocation

Past Weather in Scheibbs — Graph

°F

Scheibbs Temperature Yesterday

Maximum temperature yesterday: 78 °F (at 4:00 PM)
Minimum temperature yesterday: 54 °F (at 5:00 AM)
Average temperature yesterday: 66 °F

High & Low Weather Summary for the Past Weeks

 TemperatureHumidityPressure
High83 °F (Aug 14, 4:00 PM)100% (Aug 12, 11:00 PM)30.42 "Hg (Aug 12, 11:00 PM)
Low46 °F (Aug 12, 3:00 AM)39% (Aug 18, 1:00 PM)29.78 "Hg (Aug 18, 5:00 PM)
Average64 °F82%30.11 "Hg
* Reported Aug 10 12:00 AM — Aug 25 12:00 AM, Scheibbs, Weather by CustomWeather, © 2016

Note: Actual official high and low records may vary slightly from our data, if they occured in-between our weather recording intervals... More about our weather records

Advertising

Scheibbs Weather History for the Previous 24 Hours

Scroll right to see more
 ConditionsComfort  
Time TempWeatherWind HumidityBarometerVisibility
12:00 AM
Thu, Aug 25
62 °FCool.No wind92%30.24 "HgN/A
11:00 PM
Wed, Aug 24
65 °FMild.2 mph86%30.23 "HgN/A
10:00 PM66 °FMild.2 mph83%30.23 "HgN/A
9:00 PM65 °FMild.1 mph87%30.23 "HgN/A
8:00 PM71 °FMild.1 mph70%30.21 "HgN/A
7:00 PM75 °FMild.2 mph59%30.20 "HgN/A
6:00 PM77 °FWarm.3 mph55%30.21 "HgN/A
5:00 PM78 °FWarm.3 mph52%30.22 "HgN/A
4:00 PM78 °FWarm.3 mph52%30.22 "HgN/A
3:00 PM78 °FWarm.3 mph53%30.23 "HgN/A
1:00 PM76 °FMild.2 mph58%30.26 "HgN/A
12:00 PM73 °FMild.2 mph64%30.27 "HgN/A
11:00 AM70 °FMild.2 mph77%30.29 "HgN/A
10:00 AM65 °FMild.1 mph85%30.30 "HgN/A
8:00 AM56 °FFog.1 mph100%30.33 "HgN/A
7:00 AM55 °FCool.No wind100%30.33 "HgN/A
6:00 AM55 °FCool.1 mph100%30.32 "HgN/A
5:00 AM54 °FCool.No wind100%30.32 "HgN/A
4:00 AM55 °FCool.1 mph100%30.32 "HgN/A
3:00 AM56 °FCool.1 mph99%30.33 "HgN/A
2:00 AM58 °FCool.1 mph96%30.33 "HgN/A
Weather by CustomWeather, © 2016

See weather overviewHow to use our weather pages